Zurück zum Katalog

SJ-11-02

AktivWissenschaftSSO
NORAD 37765·PAYLOAD·🇨🇳 China

Gestartet Jul 29, 2011 von Jiuquan Satellite Launch Center

Loading…

Nächste Überflüge (nächste 24 Stunden)

TLE

AktuellSource: Space-Track

Epoche: Sep 13, 2026, 17:25 UTC

1 37765U 11039A   26256.72623041  .00000317  00000-0  68935-4 0  9994
2 37765  98.2476 146.9797 0010396 352.7074  75.6017 14.64552597806914

Verfolge SJ-11-02 in Echtzeit mit AllMySat

Download on the App Store